Location: Six Mile Lake
(44.9000°N, 79.7170°W)
Time: 03:34:44
(UTC-04:00)

NOAA 18 - Pass Details

Date: 01 July 2022
Orbit: 839 x 860 km, 98.9° (Epoch: 16 August)

Event Time Altitude Azimuth Distance (km) Brightness Sun altitude
Exits shadow 22:02:31 10° 131° (SE) 2,491 7.0 -8.2°
Reaches altitude 10° 22:02:33 10° 131° (SE) 2,477 6.9 -8.2°
Maximum altitude 22:07:33 37° 66° (ENE) 1,311 6.1 -8.8°
Drops below altitude 10° 22:12:35 10° 1° (N) 2,503 8.4 -9.4°
Sets 22:15:07 0° 353° (N) 3,446 9.3 -9.7°
